North Clarendon, VT

9:45 AM EST on February 06, 2016 (GMT -0500)
Rutland State

Weather History for KRUT - April, 2014

Change the Weather History Date:

Sunday, April 20, 2014

  Actual Average Record
Temperature  
Mean Temperature 44 °F -  
Max Temperature 61 °F - 82 °F (1987)
Min Temperature 27 °F - 23 °F (1961)
Degree Days  
Heating Degree Days 21    
Month to date heating degree days 447  
Since 1 July heating degree days 7424  
Cooling Degree Days 0    
Month to date cooling degree days 0  
Year to date cooling degree days 0  
Moisture  
Dew Point 20 °F    
Average Humidity 48    
Maximum Humidity 78    
Minimum Humidity 18    
Precipitation  
Precipitation 0.00 in - 1.14 in (1969)
Month to date precipitation 1.06  
Year to date precipitation 6.11  
Sea Level Pressure  
Sea Level Pressure 30.39 in    
Wind  
Wind Speed 6 mph (SSE)    
Max Wind Speed 12 mph    
Max Gust Speed -    
Visibility 10 miles    
Events      
T = Trace of Precipitation, MM = Missing Value Source: NWS Daily Summary

Daily Weather History Graph

Daily Weather History Graph

Search for Another Location

Airport or City:

Trip Planner

Search our weather history database for the weather conditions in past years. The results will help you decide how hot, cold, wet, or windy it might be!

Date:

Astronomy

Apr. 20, 2014 Rise Set
Actual Time 6:01 AM EDT 7:41 PM EDT
Civil Twilight 5:30 AM EDT 8:11 PM EDT
Nautical Twilight 4:54 AM EDT 8:48 PM EDT
Astronomical Twilight 4:14 AM EDT 9:27 PM EDT
Moon 12:21 AM EDT (4/20) 10:15 AM EDT (4/20)
Length of Visible Light 14h 40m
Length of Day
13h 39m
Waning Gibbous, 69% of the Moon is Illuminated
Apr 20
Waning Gibbous
Apr 22
Last Quarter
Apr 29
New
May 6
First Quarter
May 14
Full

Hourly Weather History & Observations

Time (EDT) Temp. Windchill Dew Point Humidity Pressure Visibility Wind Dir Wind Speed Gust Speed Precip Events Conditions
12:15 AM 32.0 °F 27.5 °F 24.8 °F 75% 30.44 in 10.0 mi SE 4.6 mph - N/A   Clear
12:35 AM 30.2 °F 25.4 °F 24.8 °F 80% 30.45 in 10.0 mi ESE 4.6 mph - N/A   Clear
12:55 AM 30.2 °F - 24.8 °F 80% 30.45 in 10.0 mi Calm Calm - N/A   Clear
1:15 AM 32.0 °F 25.6 °F 23.0 °F 69% 30.45 in 10.0 mi SE 6.9 mph - N/A   Clear
1:35 AM 30.2 °F 22.6 °F 24.8 °F 80% 30.45 in 10.0 mi ESE 8.1 mph - N/A   Clear
1:55 AM 30.2 °F 23.4 °F 24.8 °F 80% 30.44 in 10.0 mi ESE 6.9 mph - N/A   Clear
2:15 AM 30.2 °F 22.6 °F 23.0 °F 75% 30.43 in 10.0 mi ESE 8.1 mph - N/A   Clear
2:35 AM 30.2 °F 26.7 °F 21.2 °F 69% 30.42 in 10.0 mi SE 3.5 mph - N/A   Clear
2:55 AM 28.4 °F 21.2 °F 23.0 °F 80% 30.42 in 10.0 mi SSE 6.9 mph - N/A   Clear
3:15 AM 28.4 °F 21.2 °F 23.0 °F 80% 30.42 in 10.0 mi SSE 6.9 mph - N/A   Clear
3:35 AM 28.4 °F 22.2 °F 23.0 °F 80% 30.42 in 10.0 mi SE 5.8 mph - N/A   Clear
3:55 AM 28.4 °F 23.3 °F 23.0 °F 80% 30.42 in 10.0 mi SE 4.6 mph - N/A   Clear
4:15 AM 28.4 °F 20.4 °F 21.2 °F 74% 30.43 in 10.0 mi SE 8.1 mph - N/A   Clear
4:35 AM 26.6 °F 21.2 °F 21.2 °F 80% 30.44 in 10.0 mi SE 4.6 mph - N/A   Clear
4:55 AM 28.4 °F 20.4 °F 21.2 °F 74% 30.45 in 10.0 mi SE 8.1 mph - N/A   Clear
5:15 AM 26.6 °F 19.1 °F 21.2 °F 80% 30.45 in 10.0 mi SE 6.9 mph - N/A   Clear
5:35 AM 28.4 °F 19.7 °F 21.2 °F 74% 30.46 in 10.0 mi SE 9.2 mph - N/A   Clear
5:55 AM 28.4 °F 20.4 °F 21.2 °F 74% 30.47 in 10.0 mi SE 8.1 mph - N/A   Clear
6:15 AM 26.6 °F 20.0 °F 21.2 °F 80% 30.48 in 10.0 mi SSE 5.8 mph - N/A   Clear
6:35 AM 26.6 °F 19.1 °F 21.2 °F 80% 30.48 in 10.0 mi ESE 6.9 mph - N/A   Clear
6:55 AM 28.4 °F 22.2 °F 21.2 °F 74% 30.49 in 10.0 mi ESE 5.8 mph - N/A   Clear
7:15 AM 28.4 °F 20.4 °F 21.2 °F 74% 30.49 in 10.0 mi ESE 8.1 mph - N/A   Clear
7:35 AM 30.2 °F 26.7 °F 21.2 °F 69% 30.49 in 10.0 mi SSE 3.5 mph - N/A   Clear
7:55 AM 32.0 °F 28.7 °F 21.2 °F 64% 30.50 in 10.0 mi South 3.5 mph - N/A   Clear
8:15 AM 35.6 °F - 21.2 °F 56% 30.51 in 10.0 mi Calm Calm - N/A   Clear
8:35 AM 37.4 °F - 21.2 °F 52% 30.51 in 10.0 mi Calm Calm - N/A   Clear
8:55 AM 39.2 °F - 21.2 °F 49% 30.51 in 10.0 mi Calm Calm - N/A   Clear
9:15 AM 42.8 °F - 19.4 °F 39% 30.50 in 10.0 mi Calm Calm - N/A   Clear
9:35 AM 42.8 °F - 19.4 °F 39% 30.50 in 10.0 mi Calm Calm - N/A   Clear
9:55 AM 44.6 °F - 15.8 °F 31% 30.49 in 10.0 mi Calm Calm - N/A   Clear
10:15 AM 44.6 °F - 12.2 °F 27% 30.48 in 10.0 mi Calm Calm - N/A   Clear
10:35 AM 46.4 °F 43.5 °F 15.8 °F 29% 30.47 in 10.0 mi SW 5.8 mph - N/A   Clear
10:55 AM 48.2 °F - 15.8 °F 27% 30.47 in 10.0 mi SW 3.5 mph - N/A   Clear
11:15 AM 48.2 °F - 15.8 °F 27% 30.46 in 10.0 mi SSE 4.6 mph - N/A   Clear
11:35 AM 50.0 °F - 14.0 °F 24% 30.45 in 10.0 mi South 4.6 mph - N/A   Clear
11:55 AM 51.8 °F - 12.2 °F 21% 30.44 in 10.0 mi SSE 6.9 mph - N/A   Clear
12:15 PM 51.8 °F - 14.0 °F 22% 30.43 in 10.0 mi NW 4.6 mph - N/A   Clear
12:35 PM 51.8 °F - 15.8 °F 24% 30.42 in 10.0 mi SE 4.6 mph - N/A   Clear
12:55 PM 53.6 °F - 12.2 °F 19% 30.41 in 10.0 mi Calm Calm - N/A   Clear
1:15 PM 53.6 °F - 15.8 °F 22% 30.40 in 10.0 mi NW 3.5 mph - N/A   Clear
1:35 PM 55.4 °F - 12.2 °F 18% 30.40 in 10.0 mi South 4.6 mph - N/A   Clear
1:55 PM 57.2 °F - 15.8 °F 20% 30.39 in 10.0 mi Calm Calm - N/A   Clear
2:15 PM 57.2 °F - 14.0 °F 18% 30.38 in 10.0 mi SSE 5.8 mph - N/A   Clear
2:35 PM 57.2 °F - 14.0 °F 18% 30.37 in 10.0 mi Calm Calm - N/A   Clear
2:55 PM 59.0 °F - 15.8 °F 19% 30.36 in 10.0 mi ESE 5.8 mph - N/A   Clear
3:15 PM 57.2 °F - 17.6 °F 21% 30.35 in 10.0 mi South 3.5 mph - N/A   Clear
3:35 PM 59.0 °F - 17.6 °F 20% 30.34 in 10.0 mi WNW 6.9 mph - N/A   Clear
3:55 PM 60.8 °F - 19.4 °F 20% 30.34 in 10.0 mi WNW 6.9 mph - N/A   Clear
4:15 PM 60.8 °F - 19.4 °F 20% 30.33 in 10.0 mi NNW 4.6 mph - N/A   Clear
4:35 PM 60.8 °F - 17.6 °F 19% 30.33 in 10.0 mi West 3.5 mph - N/A   Clear
4:55 PM 60.8 °F - 17.6 °F 19% 30.32 in 10.0 mi WSW 8.1 mph - N/A   Clear
5:15 PM 60.8 °F - 19.4 °F 20% 30.32 in 10.0 mi West 6.9 mph - N/A   Clear
5:35 PM 60.8 °F - 19.4 °F 20% 30.31 in 10.0 mi West 6.9 mph - N/A   Clear
5:55 PM 60.8 °F - 19.4 °F 20% 30.31 in 10.0 mi West 8.1 mph - N/A   Clear
6:15 PM 60.8 °F - 19.4 °F 20% 30.30 in 10.0 mi West 6.9 mph - N/A   Clear
6:35 PM 59.0 °F - 19.4 °F 22% 30.30 in 10.0 mi West 4.6 mph - N/A   Clear
7:15 PM 57.2 °F - 17.6 °F 21% 30.29 in 10.0 mi West 3.5 mph - N/A   Clear
7:35 PM 57.2 °F - 17.6 °F 21% 30.29 in 10.0 mi South 4.6 mph - N/A   Clear
7:55 PM 55.4 °F - 19.4 °F 25% 30.29 in 10.0 mi South 4.6 mph - N/A   Clear
8:15 PM 53.6 °F - 19.4 °F 26% 30.29 in 10.0 mi SE 4.6 mph - N/A   Clear
8:35 PM 50.0 °F - 23.0 °F 35% 30.28 in 10.0 mi ESE 8.1 mph - N/A   Clear
8:55 PM 50.0 °F - 21.2 °F 32% 30.29 in 10.0 mi ESE 9.2 mph - N/A   Clear
9:15 PM 48.2 °F - 23.0 °F 37% 30.29 in 10.0 mi ESE 9.2 mph - N/A   Clear
9:35 PM 46.4 °F 41.9 °F 23.0 °F 40% 30.29 in 10.0 mi SE 9.2 mph - N/A   Clear
9:55 PM 46.4 °F 41.1 °F 23.0 °F 40% 30.28 in 10.0 mi SE 11.5 mph - N/A   Clear
10:15 PM 44.6 °F 39.2 °F 23.0 °F 43% 30.28 in 10.0 mi SE 10.4 mph - N/A   Clear
10:35 PM 44.6 °F 39.7 °F 23.0 °F 43% 30.27 in 10.0 mi SE 9.2 mph - N/A   Clear
10:55 PM 42.8 °F 37.5 °F 23.0 °F 46% 30.27 in 10.0 mi SE 9.2 mph - N/A   Clear
11:15 PM 42.8 °F 37.0 °F 21.2 °F 42% 30.27 in 10.0 mi SE 10.4 mph - N/A   Clear
11:35 PM 42.8 °F 36.6 °F 21.2 °F 42% 30.25 in 10.0 mi SE 11.5 mph - N/A   Clear
11:55 PM 42.8 °F 37.0 °F 21.2 °F 42% 30.25 in 10.0 mi SE 10.4 mph - N/A   Clear